TimeCDT,TemperatureF,Dew PointF,Humidity,Sea Level PressureIn,VisibilityMPH,Wind Direction,Wind SpeedMPH,Gust SpeedMPH,PrecipitationIn,Events,Conditions,WindDirDegrees,DateUTC
12:15 AM,43.7,36.0,74,30.10,10.0,NE,5.8,-,N/A,,Clear,50,2012-11-03 05:15:00
12:35 AM,43.3,35.8,75,30.10,10.0,NE,5.8,-,N/A,,Clear,50,2012-11-03 05:35:00
12:55 AM,43.3,35.6,74,30.10,10.0,NE,4.6,-,N/A,,Clear,50,2012-11-03 05:55:00
1:15 AM,43.7,35.2,72,30.10,10.0,NE,5.8,-,N/A,,Clear,50,2012-11-03 06:15:00
1:35 AM,42.8,35.1,74,30.09,10.0,ENE,3.5,-,N/A,,Clear,70,2012-11-03 06:35:00
1:55 AM,42.8,34.7,73,30.09,10.0,ENE,5.8,-,N/A,,Clear,70,2012-11-03 06:55:00
2:15 AM,42.8,34.5,73,30.09,10.0,ENE,4.6,-,N/A,,Clear,70,2012-11-03 07:15:00
2:35 AM,42.3,34.3,74,30.08,10.0,ENE,6.9,-,N/A,,Clear,70,2012-11-03 07:35:00
2:55 AM,42.4,34.3,73,30.07,10.0,ENE,8.1,-,N/A,,Clear,70,2012-11-03 07:55:00
3:15 AM,42.8,34.7,73,30.07,10.0,ENE,5.8,-,N/A,,Scattered Clouds,70,2012-11-03 08:15:00
3:35 AM,43.2,34.7,72,30.07,10.0,East,8.1,-,N/A,,Mostly Cloudy,80,2012-11-03 08:35:00
3:55 AM,43.7,34.7,71,30.07,10.0,East,8.1,-,N/A,,Mostly Cloudy,80,2012-11-03 08:55:00
4:15 AM,44.1,35.1,71,30.08,10.0,ENE,8.1,-,N/A,Rain,Light Rain,70,2012-11-03 09:15:00
4:35 AM,43.7,36.0,74,30.08,10.0,East,8.1,-,N/A,,Overcast,80,2012-11-03 09:35:00
4:55 AM,44.1,36.5,75,30.09,10.0,ENE,8.1,-,N/A,,Overcast,70,2012-11-03 09:55:00
5:15 AM,43.9,36.9,76,30.10,10.0,NE,10.4,-,N/A,,Overcast,50,2012-11-03 10:15:00
5:35 AM,43.3,36.3,76,30.09,10.0,East,9.2,-,N/A,Thunderstorm,Overcast,80,2012-11-03 10:35:00
5:55 AM,43.3,36.0,75,30.10,10.0,East,6.9,-,N/A,,Overcast,80,2012-11-03 10:55:00
6:15 AM,43.5,36.3,76,30.09,10.0,East,10.4,-,N/A,,Overcast,100,2012-11-03 11:15:00
6:35 AM,43.2,37.0,79,30.10,10.0,East,8.1,-,N/A,Rain,Light Rain,100,2012-11-03 11:35:00
6:55 AM,43.2,37.4,80,30.09,10.0,ESE,9.2,-,N/A,,Overcast,110,2012-11-03 11:55:00
7:15 AM,43.7,37.4,78,30.09,10.0,ESE,9.2,-,N/A,,Overcast,110,2012-11-03 12:15:00
7:35 AM,44.1,37.0,76,30.09,10.0,East,6.9,-,N/A,,Overcast,100,2012-11-03 12:35:00
7:55 AM,44.6,37.4,76,30.10,10.0,East,9.2,-,N/A,,Overcast,100,2012-11-03 12:55:00
8:15 AM,44.8,36.9,74,30.10,10.0,East,6.9,-,N/A,,Overcast,100,2012-11-03 13:15:00
8:35 AM,45.0,36.7,73,30.11,10.0,East,5.8,-,N/A,,Overcast,90,2012-11-03 13:35:00
8:55 AM,45.1,37.6,75,30.10,10.0,ENE,5.8,-,N/A,,Overcast,70,2012-11-03 13:55:00
9:15 AM,45.1,37.9,76,30.10,10.0,ENE,8.1,-,N/A,,Overcast,70,2012-11-03 14:15:00
9:35 AM,45.5,38.1,75,30.10,10.0,ENE,9.2,-,N/A,,Overcast,70,2012-11-03 14:35:00
9:55 AM,45.7,37.6,73,30.10,10.0,ENE,9.2,-,N/A,,Overcast,70,2012-11-03 14:55:00
10:15 AM,45.7,38.8,77,30.10,10.0,ENE,9.2,-,N/A,,Overcast,60,2012-11-03 15:15:00
10:35 AM,45.3,38.5,77,30.10,10.0,ENE,10.4,-,N/A,,Overcast,70,2012-11-03 15:35:00
10:55 AM,45.9,38.3,75,30.09,10.0,East,11.5,16.1,N/A,,Overcast,80,2012-11-03 15:55:00
11:15 AM,46.4,37.9,72,30.08,10.0,East,10.4,-,N/A,,Overcast,80,2012-11-03 16:15:00
11:35 AM,46.8,37.6,70,30.07,10.0,East,13.8,-,N/A,,Overcast,90,2012-11-03 16:35:00
11:55 AM,47.5,37.8,69,30.07,10.0,ENE,12.7,-,N/A,,Overcast,70,2012-11-03 16:55:00
12:15 PM,47.7,37.6,68,30.07,10.0,ENE,10.4,17.3,N/A,,Overcast,70,2012-11-03 17:15:00
12:35 PM,48.6,37.8,66,30.06,10.0,ENE,11.5,-,N/A,,Overcast,60,2012-11-03 17:35:00
12:55 PM,48.6,37.4,65,30.06,10.0,ENE,12.7,-,N/A,,Overcast,70,2012-11-03 17:55:00
1:15 PM,49.3,37.8,65,30.05,10.0,ENE,10.4,-,N/A,,Overcast,70,2012-11-03 18:15:00
1:35 PM,50.0,38.1,64,30.04,10.0,ENE,8.1,-,N/A,,Overcast,70,2012-11-03 18:35:00
1:55 PM,50.0,38.1,64,30.05,10.0,NE,11.5,-,N/A,,Overcast,50,2012-11-03 18:55:00
2:15 PM,49.3,37.9,65,30.06,10.0,NE,9.2,-,N/A,,Overcast,50,2012-11-03 19:15:00
2:35 PM,49.3,38.3,66,30.06,10.0,NE,9.2,-,N/A,,Overcast,50,2012-11-03 19:35:00
2:55 PM,49.3,38.8,67,30.05,10.0,NE,11.5,-,N/A,,Overcast,50,2012-11-03 19:55:00
3:15 PM,48.2,39.7,73,30.07,10.0,NNE,11.5,-,N/A,,Overcast,30,2012-11-03 20:15:00
3:35 PM,46.8,39.7,77,30.07,10.0,NE,9.2,-,N/A,,Overcast,40,2012-11-03 20:35:00
3:55 PM,46.2,39.7,78,30.08,10.0,NNE,8.1,-,N/A,,Overcast,30,2012-11-03 20:55:00
4:15 PM,46.4,39.7,78,30.09,10.0,NE,10.4,16.1,N/A,,Overcast,40,2012-11-03 21:15:00
4:35 PM,46.0,39.4,78,30.10,10.0,NNE,9.2,-,N/A,,Overcast,30,2012-11-03 21:35:00
4:55 PM,46.2,39.2,76,30.10,10.0,NNE,8.1,16.1,N/A,,Overcast,30,2012-11-03 21:55:00
5:15 PM,46.6,39.4,76,30.11,10.0,NNE,11.5,-,N/A,,Overcast,20,2012-11-03 22:15:00
5:35 PM,46.4,39.0,75,30.12,10.0,NNE,10.4,-,N/A,,Overcast,30,2012-11-03 22:35:00
5:55 PM,46.2,38.8,75,30.11,10.0,NNE,12.7,-,N/A,,Overcast,20,2012-11-03 22:55:00
6:15 PM,45.9,39.2,78,30.12,10.0,NNE,6.9,-,N/A,,Overcast,20,2012-11-03 23:15:00
6:35 PM,45.1,39.2,80,30.12,10.0,North,10.4,-,N/A,,Overcast,10,2012-11-03 23:35:00
6:55 PM,44.6,39.2,81,30.12,10.0,NNE,8.1,-,N/A,,Mostly Cloudy,20,2012-11-03 23:55:00
7:15 PM,44.6,38.8,80,30.13,10.0,NNE,9.2,-,N/A,,Overcast,20,2012-11-04 00:15:00
7:35 PM,44.6,39.2,81,30.14,10.0,North,9.2,-,N/A,,Overcast,10,2012-11-04 00:35:00
7:55 PM,44.6,39.2,81,30.14,10.0,NNE,6.9,-,N/A,,Overcast,20,2012-11-04 00:55:00
8:15 PM,44.6,39.4,82,30.15,10.0,NNE,8.1,-,N/A,,Overcast,20,2012-11-04 01:15:00
8:35 PM,43.7,39.2,84,30.15,10.0,NNE,6.9,-,N/A,,Mostly Cloudy,20,2012-11-04 01:35:00
8:55 PM,42.3,38.5,86,30.16,10.0,North,5.8,-,N/A,,Clear,360,2012-11-04 01:55:00
9:15 PM,41.0,38.3,90,30.17,10.0,North,4.6,-,N/A,,Clear,350,2012-11-04 02:15:00
9:35 PM,40.3,38.3,93,30.17,10.0,North,5.8,-,N/A,,Clear,350,2012-11-04 02:35:00
9:55 PM,39.7,38.3,95,30.18,7.0,North,5.8,-,N/A,,Clear,360,2012-11-04 02:55:00
10:15 PM,39.2,37.6,94,30.18,7.0,North,5.8,-,N/A,,Clear,360,2012-11-04 03:15:00
10:35 PM,39.4,37.9,95,30.18,7.0,North,5.8,-,N/A,,Clear,10,2012-11-04 03:35:00
10:55 PM,38.8,37.6,95,30.18,7.0,North,5.8,-,N/A,,Clear,10,2012-11-04 03:55:00
11:15 PM,38.8,37.6,95,30.17,7.0,North,5.8,-,N/A,,Clear,360,2012-11-04 04:15:00
11:35 PM,38.1,36.9,95,30.17,7.0,North,4.6,-,N/A,,Clear,360,2012-11-04 04:35:00
11:55 PM,37.4,36.5,97,30.17,5.0,North,4.6,-,N/A,,Clear,360,2012-11-04 04:55:00